Regional Weather Roundup
Issued by NWS

Home | Current Version | Previous Version | Graphics & Text | Print | Product List | Glossary Off
Versions: 1 2 3 4 5 6 7 8 9 10 11 12 13 14 15 16 17 18 19 20 21 22 23 24 25 26 27 28 29 30 31 32 33 34 35 36 37 38 39 40 41 42 43 44 45 46 47 48 49 50

000
ASUS43 KTOP 232359
RWRKS

WEATHER ROUNDUP FOR KANSAS
NATIONAL WEATHER SERVICE GOODLAND KS
700 PM CDT WED JUL 23 2014

NOTE:  "FAIR" INDICATES FEW OR NO CLOUDS BELOW 12,000 FEET WITH NO
SIGNIFICANT WEATHER AND/OR OBSTRUCTIONS TO VISIBILITY.

KSZ001>006-013>018-027>032-041>047-240100-
NORTHWEST KANSAS

CITY           SKY/WX    TMP DP  RH WIND       PRES   REMARKS
GOODLAND       SUNNY     90  60  36 S14       30.18F
6HR MIN TEMP:  79; 6HR MAX TEMP:  91;

HAYS           SUNNY     84  63  48 E14       30.12F
HILL CITY      SUNNY     86  65  49 E12       30.14F
6HR MIN TEMP:  74; 6HR MAX TEMP:  90;

RUSSELL        SUNNY     86  64  47 E9        30.10F
6HR MIN TEMP:  83; 6HR MAX TEMP:  88;

$$

KSZ061>065-074>080-084>089-240100-
SOUTHWEST KANSAS

CITY           SKY/WX    TMP DP  RH WIND       PRES   REMARKS
DODGE CITY     SUNNY     89  67  47 SE8       30.13F
6HR MIN TEMP:  87; 6HR MAX TEMP:  93;

ELKHART          N/A     91  64  40 SE12        N/A
GARDEN CITY    SUNNY     89  67  47 SE13      30.14F
6HR MIN TEMP:  82; 6HR MAX TEMP:  92;

GREAT BEND     MOSUNNY   90  64  43 SE9       30.08F
LIBERAL        SUNNY     91  66  43 E15       30.13F
$$

KSZ066>073-081>083-090>101-240100-
SOUTHEAST KANSAS

CITY           SKY/WX    TMP DP  RH WIND       PRES   REMARKS
CHANUTE        PTSUNNY   88  69  53 NE5       30.07R
6HR MIN TEMP:  71; 6HR MAX TEMP:  89; 6HR PCP:  0.03;

COFFEYVILLE    PTSUNNY   85  75  72 CALM      30.04S
6HR MIN TEMP:  71; 6HR MAX TEMP:  86; 6HR PCP:  0.06;

HUTCHINSON     SUNNY     88  65  46 E9        30.09S
6HR MIN TEMP:  85; 6HR MAX TEMP:  94;

MEDICINE LODGE   N/A     91  72  53 NE9       30.07R HX  98
NEWTON         SUNNY     86  61  42 E6        30.12S
PARSONS        PTSUNNY   87  68  52 VRB5      30.07R
6HR MIN TEMP:  71; 6HR MAX TEMP:  89;

WICHITA INTL   MOSUNNY   88  63  43 NE10      30.08R
6HR MIN TEMP:  80; 6HR MAX TEMP:  91;

WICHITA JABRA  SUNNY     87  68  52 NE9       30.08R
6HR MIN TEMP:  77; 6HR MAX TEMP:  89;

WINFIELD       PTSUNNY   86  66  51 NE10      30.08R
6HR MIN TEMP:  78; 6HR MAX TEMP:  88;

$$

KSZ007>012-019>026-033>040-048>060-102>105-240100-
NORTHEAST KANSAS

CITY           SKY/WX    TMP DP  RH WIND       PRES   REMARKS
CONCORDIA      SUNNY     85  60  42 E9        30.11F
6HR MIN TEMP:  82; 6HR MAX TEMP:  87;

EMPORIA        SUNNY     87  62  43 NE7       30.07R
6HR MIN TEMP:  76; 6HR MAX TEMP:  89;

LAWRENCE       SUNNY     85  65  51 NE10      30.08S
6HR MIN TEMP:  84; 6HR MAX TEMP:  89;

MANHATTAN      SUNNY     88  59  37 NE13      30.08R
6HR MIN TEMP:  88; 6HR MAX TEMP:  92;

OLATHE IND     SUNNY     85  64  49 N12       30.09S
6HR MIN TEMP:  85; 6HR MAX TEMP:  90;

OLATHE EXE     SUNNY     84  64  50 NE12G18   30.08S
6HR MIN TEMP:  84; 6HR MAX TEMP:  89;

SALINA         SUNNY     91  60  35 E6        30.08F
6HR MIN TEMP:  83; 6HR MAX TEMP:  91;

TOPEKA BILLARD SUNNY     87  66  49 NE12      30.09R
6HR MIN TEMP:  86; 6HR MAX TEMP:  91;

TOPEKA FORBES  SUNNY     86  63  45 NE12      30.09R
6HR MIN TEMP:  86; 6HR MAX TEMP:  91;

$$



USA.gov is the U.S. government's official web portal to all federal, state and local government web resources and services.